Tracking 33744 objects as of 14-Apr-2026
HD Live streaming from Space Station
objects crossing your sky now

STARLINK-36317

Track STARLINK-36317 now!
10-day predictions
STARLINK-36317 is classified as:


NORAD ID: 67736
Int'l Code: 2026-026R
Perigee: 471.4 km
Apogee: 473.9 km
Inclination: 97.3 °
Period: 93.9 minutes
Semi major axis: 6843 km
RCS: Unknown
Launch date: February 11, 2026
Source: United States (US)
Launch site: AIR FORCE WESTERN TEST RANGE (AFWTR)
Your satellite tracking list
Your tracking list is empty




NASA's NSSDC Master Catalog

Two Line Element Set (TLE):
1 67736U 26026R   26104.09462705  .00016139  00000-0  50092-3 0  9990
2 67736  97.2837 158.2248 0001867  97.6496 262.4958 15.33459782  9552
Source of the keplerian elements: AFSPC